FW9535 Weather Reports


Display with metric or nautical units.
time (UTC)temp
F
wind
direction
speed
MPH
gust
MPH
rain 1hr
in
rain 24hr
in
rain mn
in
humidity
%
barometer
mb
20260901005737 82 310 2.0 2.0 0.00 0.01 0.01 48 1021.6
20260901004233 79 121 4.0 5.0 0.00 0.01 0.01 52 1021.8
20260901002732 79 345 1.0 2.0 0.00 0.01 0.01 46 1022.0
20260901001230 75 282 1.0 1.0 0.00 0.01 0.01 54 1022.5
20260831235725 76 51 4.0 5.0 0.00 0.01 0.01 52 1022.4
20260831234221 76 334 1.0 2.0 0.00 0.01 0.01 58 1022.9
20260831232717 74 320 2.0 2.0 0.00 0.01 0.01 61 1023.3
20260831231212 72 317 1.0 1.0 0.00 0.01 0.01 62 1023.3
20260831225712 69 313 1.0 1.0 0.00 0.01 0.01 67 1023.7
20260831224209 66 282 1.0 1.0 0.00 0.01 0.01 74 1024.0
20260831222708 62 321 1.0 2.0 0.00 0.01 0.01 94 1024.1
20260831221207 60 298 0.0 0.0 0.00 0.01 0.01 98 1024.1
20260831215703 59 318 0.0 0.0 0.00 0.01 0.01 99 1024.4
20260831214158 57 302 0.0 0.0 0.00 0.01 0.01 99 1024.4
20260831212656 55 312 0.0 0.0 0.00 0.01 0.01 99 1024.8
20260831211153 52 304 0.0 0.0 0.00 0.01 0.01 99 1024.1
20260831205648 51 291 0.0 0.0 0.00 0.01 0.01 99 1024.4
20260831204143 51 293 0.0 0.0 0.00 0.01 0.01 99 1024.3
20260831202642 49 285 0.0 0.0 0.00 0.01 0.01 99 1024.4
20260831201142 50 253 0.0 0.0 0.00 0.01 0.01 99 1024.4
20260831195640 47 272 0.0 0.0 0.00 0.01 0.01 99 1024.2
20260831194137 48 273 0.0 0.0 0.00 0.01 0.01 99 1024.4
20260831192633 49 301 0.0 0.0 0.00 0.01 0.01 99 1024.3
20260831191132 48 278 0.0 0.0 0.00 0.01 0.01 99 1024.5
20260831185628 48 300 0.0 0.0 0.00 0.01 0.01 99 1024.4
20260831184125 49 289 0.0 0.0 0.00 0.01 0.01 99 1024.4
20260831182623 49 275 0.0 0.0 0.00 0.01 0.01 99 1024.6
20260831181119 50 264 0.0 0.0 0.00 0.01 0.01 99 1024.8
20260831175616 50 275 0.0 0.0 0.00 0.01 0.01 99 1024.6
20260831174113 49 271 0.0 0.0 0.00 0.01 0.01 99 1024.7
20260831172608 50 294 0.0 0.0 0.05 0.01 0.01 99 1024.5
20260831171107 49 258 0.0 0.0 0.00 0.00 0.00 99 1024.5
20260831165606 49 269 0.0 0.0 0.00 0.00 0.00 98 1024.6
20260831164106 48 274 0.0 0.0 0.00 0.00 0.00 98 1024.9
20260831162601 49 263 0.0 0.0 0.00 0.00 0.00 98 1025.0
20260831161058 49 248 1.0 1.0 0.00 0.00 0.00 98 1025.6
20260831155559 50 258 0.0 0.0 0.00 0.00 0.00 98 1025.7
20260831154055 50 270 0.0 0.0 0.00 0.00 0.00 97 1025.9
20260831152553 50 270 0.0 0.0 0.00 0.00 0.00 97 1026.2
20260831151048 50 278 0.0 0.0 0.00 0.00 0.00 97 1026.1
20260831145545 50 234 0.0 0.0 0.00 0.00 0.00 97 1026.3
20260831144044 50 266 0.0 0.0 0.00 0.00 0.00 97 1026.5
20260831142543 51 273 0.0 0.0 0.00 0.00 0.00 97 1026.6
20260831141043 51 213 1.0 2.0 0.00 0.00 0.00 97 1026.5
20260831135540 51 265 0.0 0.0 0.00 0.00 0.00 97 1026.4
20260831134038 52 267 0.0 0.0 0.00 0.00 0.00 97 1026.8
20260831132535 51 197 0.0 0.0 0.00 0.00 0.00 97 1026.9
20260831131031 52 269 0.0 0.0 0.00 0.00 0.00 97 1027.0
20260831125526 51 290 0.0 0.0 0.00 0.00 0.00 97 1027.2
20260831124025 51 292 0.0 0.0 0.00 0.00 0.00 97 1027.3
20260831122525 52 294 0.0 0.0 0.00 0.00 0.00 97 1027.3
20260831121023 53 273 0.0 0.0 0.00 0.00 0.00 97 1027.6
20260831115519 53 269 0.0 0.0 0.00 0.00 0.00 96 1027.8
20260831114014 53 290 0.0 0.0 0.00 0.00 0.00 96 1027.8
20260831112509 54 265 1.0 1.0 0.00 0.00 0.00 96 1027.9
20260831111007 54 271 0.0 0.0 0.00 0.00 0.00 96 1027.8
20260831105507 54 285 0.0 0.0 0.00 0.00 0.00 95 1027.7
20260831104006 53 297 0.0 0.0 0.00 0.00 0.00 95 1027.8
20260831102502 54 298 0.0 0.0 0.00 0.00 0.00 95 1027.9
20260831101000 55 295 0.0 0.0 0.00 0.00 0.00 94 1027.7
20260831095456 55 274 2.0 2.0 0.00 0.00 0.00 94 1027.9
20260831093955 55 299 0.0 0.0 0.00 0.00 0.00 93 1027.7
20260831092453 55 297 0.0 0.0 0.00 0.00 0.00 91 1027.6
20260831090949 56 284 0.0 0.0 0.00 0.00 0.00 90 1027.6
20260831085449 56 293 0.0 0.0 0.00 0.00 0.00 89 1027.6
20260831083947 57 299 0.0 0.0 0.00 0.00 0.00 88 1027.4
20260831082447 58 308 0.0 0.0 0.00 0.00 0.00 87 1027.2
20260831080946 59 305 0.0 1.0 0.00 0.00 0.00 85 1027.3
20260831075443 60 304 0.0 0.0 0.00 0.00 0.00 84 1027.2
20260831073938 60 334 1.0 2.0 0.00 0.00 0.00 83 1027.0
20260831072434 62 318 2.0 2.0 0.00 0.00 0.00 81 1027.1
20260831070929 64 320 1.0 1.0 0.00 0.00 0.00 79 1026.9
20260831065426 66 298 2.0 2.0 0.00 0.00 0.00 75 1027.0
20260831063924 67 291 0.0 0.0 0.00 0.00 0.00 73 1026.8
20260831062421 67 3 3.0 3.0 0.00 0.00 0.00 72 1027.3
20260831060921 67 317 2.0 5.0 0.00 0.00 0.00 72 1027.2
20260831055421 68 310 2.0 3.0 0.00 0.00 0.00 72 1027.5
20260831053917 68 327 4.0 6.0 0.00 0.00 0.00 73 1027.4
20260831052415 69 313 2.0 3.0 0.00 0.00 0.00 73 1027.5
20260831050913 69 13 4.0 6.0 0.00 0.00 0.00 72 1027.5
20260831045411 68 338 5.0 6.0 0.00 0.00 0.00 75 1027.4
20260831043909 69 344 3.0 3.0 0.00 0.00 0.00 71 1027.6
20260831042409 70 300 1.0 2.0 0.00 0.00 0.00 65 1027.6
20260831040905 71 294 3.0 5.0 0.00 0.00 0.00 64 1027.8
20260831035402 70 307 0.0 1.0 0.00 0.00 0.00 63 1028.0
20260831033859 69 20 2.0 2.0 0.00 0.00 0.00 63 1028.0
20260831032355 71 14 4.0 5.0 0.00 0.00 0.00 66 1028.1
20260831030851 69 62 1.0 5.0 0.00 0.00 0.00 70 1028.4
20260831025348 71 290 2.0 2.0 0.00 0.00 0.00 68 1028.5
20260831023848 70 209 2.0 3.0 0.00 0.00 0.00 72 1028.3
20260831022347 71 210 3.0 5.0 0.00 0.00 0.00 68 1028.7
20260831020844 70 299 2.0 3.0 0.00 0.00 0.00 70 1028.7
20260831015341 71 349 2.0 3.0 0.00 0.00 0.00 68 1029.0
20260831013837 70 130 3.0 5.0 0.00 0.00 0.00 71 1029.2
20260831012334 69 145 4.0 6.0 0.00 0.00 0.00 69 1029.5
20260831010830 70 76 3.0 3.0 0.00 0.00 0.00 69 1029.4